Ignacio, CO

4:57 AM MST on February 22, 2017 (GMT -0700)
Durango-La Plata County

Weather History for KDRO - February, 2014

Change the Weather History Date:

Sunday, February 23, 2014

  Actual Average Record
Temperature  
Mean Temperature 36 °F 31 °F  
Max Temperature 56 °F 45 °F 63 °F (1981)
Min Temperature 16 °F 17 °F 0 °F (1975)
Degree Days  
Heating Degree Days 29 34  
Month to date heating degree days 720 856  
Since 1 July heating degree days 4793 5010  
Cooling Degree Days 0 0  
Month to date cooling degree days 0 0  
Year to date cooling degree days 0 0  
Moisture  
Dew Point 10 °F    
Average Humidity 47    
Maximum Humidity 80    
Minimum Humidity 13    
Precipitation  
Precipitation 0.00 in 0.04 in 0.71 in (2015)
Month to date precipitation 0.26 0.97  
Year to date precipitation 0.39 2.09  
Sea Level Pressure  
Sea Level Pressure 30.12 in    
Wind  
Wind Speed 6 mph (WSW)    
Max Wind Speed 21 mph    
Max Gust Speed 27 mph    
Visibility 10 miles    
Events      
T = Trace of Precipitation, MM = Missing Value Source: NWS Daily Summary

Daily Weather History Graph

Daily Weather History Graph

Search for Another Location

Airport or City:

Trip Planner

Search our weather history database for the weather conditions in past years. The results will help you decide how hot, cold, wet, or windy it might be!

Date:

Astronomy

Feb. 23, 2014 Rise Set
Actual Time 6:49 AM MST 5:59 PM MST
Civil Twilight 6:23 AM MST 6:25 PM MST
Nautical Twilight 5:53 AM MST 6:55 PM MST
Astronomical Twilight 5:23 AM MST 7:25 PM MST
Moon 1:47 AM MST (2/23) 12:08 PM MST (2/23)
Length of Visible Light 12h 01m
Length of Day
11h 09m
Last Quarter, 38% of the Moon is Illuminated
Feb 23
Last Quarter
Mar 1
New
Mar 8
First Quarter
Mar 16
Full
Mar 23
Last Quarter

Hourly Weather History & Observations

Time (MST) Temp. Windchill Dew Point Humidity Pressure Visibility Wind Dir Wind Speed Gust Speed Precip Events Conditions
12:53 AM 24.1 °F - 12.0 °F 60% 30.05 in 10.0 mi Calm Calm - N/A   Clear
1:53 AM 23.0 °F - 12.0 °F 63% 30.05 in 10.0 mi Calm Calm - N/A   Clear
2:53 AM 21.9 °F 17.2 °F 12.9 °F 68% 30.05 in 10.0 mi ENE 3.5 mph - N/A   Clear
3:53 AM 21.9 °F 17.2 °F 12.9 °F 68% 30.06 in 10.0 mi North 3.5 mph - N/A   Clear
4:53 AM 17.1 °F - 10.0 °F 74% 30.12 in 10.0 mi Calm Calm - N/A   Clear
5:53 AM 18.0 °F 11.1 °F 12.0 °F 78% 30.14 in 10.0 mi NE 4.6 mph - N/A   Clear
6:53 AM 19.9 °F 14.9 °F 12.9 °F 74% 30.18 in 10.0 mi NNE 3.5 mph - N/A   Clear
7:53 AM 26.1 °F - 15.1 °F 63% 30.19 in 10.0 mi Calm Calm - N/A   Clear
8:53 AM 33.1 °F - 15.1 °F 48% 30.17 in 10.0 mi Calm Calm - N/A   Clear
9:53 AM 41.0 °F 38.0 °F 16.0 °F 36% 30.19 in 10.0 mi ENE 4.6 mph - N/A   Clear
10:53 AM 46.0 °F - 14.0 °F 28% 30.15 in 10.0 mi Calm Calm - N/A   Clear
11:53 AM 50.0 °F - 10.9 °F 21% 30.11 in 10.0 mi WSW 4.6 mph - N/A   Clear
12:53 PM 53.1 °F - 10.0 °F 18% 30.08 in 10.0 mi WSW 12.7 mph - N/A   Clear
1:53 PM 55.0 °F - 10.0 °F 17% 30.06 in 10.0 mi SSW 13.8 mph 21.9 mph N/A   Clear
2:53 PM 54.0 °F - 8.1 °F 16% 30.06 in 10.0 mi SW 17.3 mph 25.3 mph N/A   Clear
3:53 PM 55.0 °F - 7.0 °F 15% 30.05 in 10.0 mi SSW 18.4 mph 24.2 mph N/A   Clear
4:53 PM 53.1 °F - 5.0 °F 14% 30.09 in 10.0 mi SW 16.1 mph - N/A   Clear
5:53 PM 48.9 °F - 5.0 °F 17% 30.12 in 10.0 mi WSW 12.7 mph - N/A   Clear
6:53 PM 43.0 °F 38.8 °F 3.0 °F 19% 30.16 in 10.0 mi WSW 6.9 mph - N/A   Clear
7:53 PM 41.0 °F 39.0 °F 3.0 °F 21% 30.14 in 10.0 mi WSW 3.5 mph - N/A   Clear
8:53 PM 34.0 °F 29.8 °F 8.1 °F 34% 30.15 in 10.0 mi NE 4.6 mph - N/A   Clear
9:53 PM 28.9 °F 22.8 °F 8.1 °F 41% 30.16 in 10.0 mi ENE 5.8 mph - N/A   Clear
10:53 PM 28.9 °F - 10.0 °F 45% 30.13 in 10.0 mi Calm Calm - N/A   Clear
11:53 PM 26.1 °F - 10.9 °F 53% 30.12 in 10.0 mi Calm Calm - N/A   Clear